Weather History for McAllen, TX

Change the Weather History Date:

Friday, April 5, 2013

  Actual Average Record
Temperature  
Mean Temperature 69 °F 75 °F  
Max Temperature 82 °F 86 °F 98 °F (1955)
Min Temperature 56 °F 64 °F 41 °F (1881)
Degree Days  
Heating Degree Days 0 0  
Month to date heating degree days 0 3  
Since 1 July heating degree days 312 574  
Cooling Degree Days 4 10  
Month to date cooling degree days 46 50  
Year to date cooling degree days 514 427  
Growing Degree Days 19 (Base 50)    
Moisture  
Dew Point 52 °F    
Average Humidity 60    
Maximum Humidity 86    
Minimum Humidity 33    
Precipitation  
Precipitation 0.00 in 0.03 in 2.93 in (2004)
Month to date precipitation T 0.15  
Year to date precipitation 0.99 3.34  
Sea Level Pressure  
Sea Level Pressure 30.15 in    
Wind  
Wind Speed 8 mph (East)    
Max Wind Speed 21 mph    
Max Gust Speed 25 mph    
Visibility 10 miles    
Events      
T = Trace of Precipitation, MM = Missing Value Source: NWS Daily Summary

Daily Weather History Graph

Daily Weather History Graph

Search for Another Location

Airport:

Trip Planner

Search our weather history database for the weather conditions in past years. The results will help you decide how hot, cold, wet, or windy it might be!

Date:

Astronomy

Apr. 05, 2013 Rise Set
Actual Time 7:19 AM CDT 7:51 PM CDT
Civil Twilight 6:56 AM CDT 8:15 PM CDT
Nautical Twilight 6:28 AM CDT 8:42 PM CDT
Astronomical Twilight 6:01 AM CDT 9:10 PM CDT
Moon 4:01 AM CDT (4/5) 3:41 PM CDT (4/5)
Length of Visible Light 13h 19m
Length of Day
12h 32m
Waning Crescent, 23% of the Moon is Illuminated
Apr 5
Waning Crescent
Apr 10
New
Apr 18
First Quarter
Apr 25
Full
May 2
Last Quarter

Hourly Weather History & Observations

Time (CDT) Temp. Dew Point Humidity Pressure Visibility Wind Dir Wind Speed Gust Speed Precip Events Conditions
12:53 AM 60.1 °F 52.0 °F 75% 30.18 in 10.0 mi SE 4.6 mph - N/A   Clear
1:53 AM 59.0 °F 52.0 °F 78% 30.19 in 10.0 mi ESE 3.5 mph - N/A   Clear
2:53 AM 57.9 °F 52.0 °F 81% 30.19 in 10.0 mi ESE 3.5 mph - N/A   Clear
3:53 AM 57.9 °F 53.1 °F 84% 30.19 in 10.0 mi ESE 3.5 mph - N/A   Clear
4:53 AM 57.0 °F 52.0 °F 83% 30.19 in 10.0 mi Calm Calm - N/A   Partly Cloudy
5:53 AM 57.9 °F 53.1 °F 84% 30.19 in 10.0 mi Calm Calm - N/A   Clear
6:53 AM 57.0 °F 52.0 °F 83% 30.20 in 10.0 mi NE 4.6 mph - N/A   Clear
7:53 AM 57.9 °F 53.1 °F 84% 30.23 in 10.0 mi NE 4.6 mph - N/A   Clear
8:53 AM 60.1 °F 52.0 °F 75% 30.25 in 10.0 mi ENE 6.9 mph - N/A   Clear
9:53 AM 64.9 °F 53.1 °F 65% 30.26 in 10.0 mi East 8.1 mph - N/A   Clear
10:53 AM 68.0 °F 53.1 °F 59% 30.26 in 10.0 mi ESE 8.1 mph - N/A   Clear
11:53 AM 72.0 °F 52.0 °F 49% 30.24 in 10.0 mi SE 6.9 mph - N/A   Clear
12:53 PM 73.9 °F 52.0 °F 46% 30.20 in 10.0 mi Variable 5.8 mph - N/A   Clear
1:53 PM 78.1 °F 52.0 °F 40% 30.16 in 10.0 mi NE 5.8 mph - N/A   Clear
2:53 PM 81.0 °F 51.1 °F 35% 30.12 in 10.0 mi ENE 8.1 mph - N/A   Clear
3:53 PM 81.0 °F 48.9 °F 33% 30.08 in 10.0 mi Variable 6.9 mph - N/A   Clear
4:53 PM 81.0 °F 48.9 °F 33% 30.05 in 10.0 mi SSE 9.2 mph 17.3 mph N/A   Clear
5:53 PM 79.0 °F 51.1 °F 38% 30.03 in 10.0 mi East 17.3 mph 20.7 mph N/A   Clear
6:53 PM 75.0 °F 52.0 °F 44% 30.04 in 10.0 mi East 17.3 mph - N/A   Clear
7:53 PM 69.1 °F 52.0 °F 54% 30.06 in 10.0 mi ESE 16.1 mph - N/A   Clear
8:53 PM 66.9 °F 52.0 °F 59% 30.09 in 10.0 mi ESE 13.8 mph - N/A   Clear
9:53 PM 64.9 °F 54.0 °F 68% 30.10 in 10.0 mi ESE 12.7 mph - N/A   Clear
10:53 PM 64.0 °F 55.0 °F 73% 30.11 in 10.0 mi SE 11.5 mph - N/A   Clear
11:53 PM 63.0 °F 55.0 °F 75% 30.09 in 10.0 mi SE 8.1 mph - N/A   Clear